Data supplied by UK-AIR on 5/4/2008
All Data GMT hour ending 
Status: R =Ratified P=Provisional,P*=As supplied
,,Billingham,,,,,,,,,,,,,,,,,,,,,,,
Date,time,"Nitric oxide",status,unit,"Nitrogen dioxide",status,unit,"Nitrogen oxides as nitrogen dioxide",status,unit
 
01-01-1990,01:00,16,R,ugm-3,52,R,ugm-3,76,R,ugm-3
01-01-1990,02:00,34,R,ugm-3,53,R,ugm-3,105,R,ugm-3
01-01-1990,03:00,53,R,ugm-3,61,R,ugm-3,141,R,ugm-3
01-01-1990,04:00,46,R,ugm-3,57,R,ugm-3,128,R,ugm-3
01-01-1990,05:00,53,R,ugm-3,55,R,ugm-3,136,R,ugm-3
01-01-1990,06:00,76,R,ugm-3,63,R,ugm-3,180,R,ugm-3
01-01-1990,07:00,65,R,ugm-3,63,R,ugm-3,162,R,ugm-3
01-01-1990,08:00,73,R,ugm-3,67,R,ugm-3,178,R,ugm-3
01-01-1990,09:00,39,R,ugm-3,57,R,ugm-3,117,R,ugm-3
01-01-1990,10:00,66,R,ugm-3,61,R,ugm-3,162,R,ugm-3
01-01-1990,11:00,69,R,ugm-3,59,R,ugm-3,164,R,ugm-3
01-01-1990,12:00,65,R,ugm-3,63,R,ugm-3,162,R,ugm-3
01-01-1990,13:00,40,R,ugm-3,50,R,ugm-3,111,R,ugm-3
01-01-1990,14:00,45,R,ugm-3,50,R,ugm-3,118,R,ugm-3
01-01-1990,15:00,46,R,ugm-3,48,R,ugm-3,118,R,ugm-3
01-01-1990,16:00,40,R,ugm-3,50,R,ugm-3,111,R,ugm-3
01-01-1990,17:00,31,R,ugm-3,50,R,ugm-3,97,R,ugm-3
01-01-1990,18:00,46,R,ugm-3,52,R,ugm-3,122,R,ugm-3
01-01-1990,19:00,40,R,ugm-3,48,R,ugm-3,109,R,ugm-3
01-01-1990,20:00,40,R,ugm-3,44,R,ugm-3,105,R,ugm-3
01-01-1990,21:00,39,R,ugm-3,52,R,ugm-3,111,R,ugm-3
01-01-1990,22:00,33,R,ugm-3,50,R,ugm-3,99,R,ugm-3
01-01-1990,23:00,25,R,ugm-3,48,R,ugm-3,86,R,ugm-3
01-01-1990,24:00,21,R,ugm-3,44,R,ugm-3,76,R,ugm-3
02-01-1990,01:00,21,R,ugm-3,46,R,ugm-3,78,R,ugm-3
02-01-1990,02:00,18,R,ugm-3,42,R,ugm-3,69,R,ugm-3
02-01-1990,03:00,19,R,ugm-3,42,R,ugm-3,71,R,ugm-3
02-01-1990,04:00,24,R,ugm-3,42,R,ugm-3,78,R,ugm-3
02-01-1990,05:00,28,R,ugm-3,44,R,ugm-3,86,R,ugm-3
02-01-1990,06:00,25,R,ugm-3,46,R,ugm-3,84,R,ugm-3
02-01-1990,07:00,30,R,ugm-3,48,R,ugm-3,94,R,ugm-3
02-01-1990,08:00,49,R,ugm-3,53,R,ugm-3,128,R,ugm-3
02-01-1990,09:00,80,R,ugm-3,63,R,ugm-3,185,R,ugm-3
02-01-1990,10:00,69,R,ugm-3,61,R,ugm-3,166,R,ugm-3
02-01-1990,11:00,89,R,ugm-3,55,R,ugm-3,191,R,ugm-3
02-01-1990,12:00,109,R,ugm-3,82,R,ugm-3,248,R,ugm-3
02-01-1990,13:00,170,R,ugm-3,57,R,ugm-3,317,R,ugm-3
02-01-1990,14:00,233,R,ugm-3,52,R,ugm-3,407,R,ugm-3
02-01-1990,15:00,201,R,ugm-3,74,R,ugm-3,382,R,ugm-3
02-01-1990,16:00,73,R,ugm-3,63,R,ugm-3,174,R,ugm-3
02-01-1990,17:00,76,R,ugm-3,61,R,ugm-3,178,R,ugm-3
02-01-1990,18:00,76,R,ugm-3,65,R,ugm-3,181,R,ugm-3
02-01-1990,19:00,43,R,ugm-3,61,R,ugm-3,126,R,ugm-3
02-01-1990,20:00,71,R,ugm-3,63,R,ugm-3,172,R,ugm-3
02-01-1990,21:00,49,R,ugm-3,65,R,ugm-3,139,R,ugm-3
02-01-1990,22:00,60,R,ugm-3,69,R,ugm-3,160,R,ugm-3
02-01-1990,23:00,56,R,ugm-3,61,R,ugm-3,147,R,ugm-3
02-01-1990,24:00,44,R,ugm-3,65,R,ugm-3,132,R,ugm-3
03-01-1990,01:00,60,R,ugm-3,80,R,ugm-3,172,R,ugm-3
03-01-1990,02:00,30,R,ugm-3,71,R,ugm-3,117,R,ugm-3
03-01-1990,03:00,48,R,ugm-3,82,R,ugm-3,155,R,ugm-3
03-01-1990,04:00,13,R,ugm-3,55,R,ugm-3,74,R,ugm-3
03-01-1990,05:00,20,R,ugm-3,61,R,ugm-3,92,R,ugm-3
03-01-1990,06:00,51,R,ugm-3,74,R,ugm-3,153,R,ugm-3
03-01-1990,07:00,50,R,ugm-3,74,R,ugm-3,151,R,ugm-3
03-01-1990,08:00,39,R,ugm-3,73,R,ugm-3,132,R,ugm-3
03-01-1990,09:00,43,R,ugm-3,59,R,ugm-3,124,R,ugm-3
03-01-1990,10:00,43,R,ugm-3,55,R,ugm-3,120,R,ugm-3
03-01-1990,11:00,56,R,ugm-3,53,R,ugm-3,139,R,ugm-3
03-01-1990,12:00,45,R,ugm-3,50,R,ugm-3,118,R,ugm-3
03-01-1990,13:00,29,R,ugm-3,48,R,ugm-3,92,R,ugm-3
03-01-1990,14:00,48,R,ugm-3,61,R,ugm-3,134,R,ugm-3
03-01-1990,15:00,55,R,ugm-3,69,R,ugm-3,153,R,ugm-3
03-01-1990,16:00,46,R,ugm-3,61,R,ugm-3,132,R,ugm-3
03-01-1990,17:00,53,R,ugm-3,67,R,ugm-3,147,R,ugm-3
03-01-1990,18:00,53,R,ugm-3,73,R,ugm-3,153,R,ugm-3
03-01-1990,19:00,54,R,ugm-3,78,R,ugm-3,160,R,ugm-3
03-01-1990,20:00,48,R,ugm-3,69,R,ugm-3,141,R,ugm-3
03-01-1990,21:00,35,R,ugm-3,61,R,ugm-3,115,R,ugm-3
03-01-1990,22:00,41,R,ugm-3,61,R,ugm-3,124,R,ugm-3
03-01-1990,23:00,41,R,ugm-3,63,R,ugm-3,126,R,ugm-3
03-01-1990,24:00,45,R,ugm-3,63,R,ugm-3,132,R,ugm-3
04-01-1990,01:00,43,R,ugm-3,61,R,ugm-3,126,R,ugm-3
04-01-1990,02:00,26,R,ugm-3,57,R,ugm-3,97,R,ugm-3
04-01-1990,03:00,31,R,ugm-3,57,R,ugm-3,105,R,ugm-3
04-01-1990,04:00,38,R,ugm-3,57,R,ugm-3,115,R,ugm-3
04-01-1990,05:00,33,R,ugm-3,53,R,ugm-3,103,R,ugm-3
04-01-1990,06:00,26,R,ugm-3,52,R,ugm-3,92,R,ugm-3
04-01-1990,07:00,54,R,ugm-3,53,R,ugm-3,136,R,ugm-3
04-01-1990,08:00,143,R,ugm-3,67,R,ugm-3,285,R,ugm-3
04-01-1990,09:00,294,R,ugm-3,71,R,ugm-3,520,R,ugm-3
04-01-1990,10:00,204,R,ugm-3,59,R,ugm-3,371,R,ugm-3
04-01-1990,11:00,155,R,ugm-3,59,R,ugm-3,296,R,ugm-3
04-01-1990,12:00,116,R,ugm-3,59,R,ugm-3,237,R,ugm-3
04-01-1990,13:00,79,R,ugm-3,59,R,ugm-3,180,R,ugm-3
04-01-1990,14:00,65,R,ugm-3,53,R,ugm-3,153,R,ugm-3
04-01-1990,15:00,83,R,ugm-3,53,R,ugm-3,180,R,ugm-3
04-01-1990,16:00,69,R,ugm-3,55,R,ugm-3,160,R,ugm-3
04-01-1990,17:00,98,R,ugm-3,61,R,ugm-3,210,R,ugm-3
04-01-1990,18:00,100,R,ugm-3,61,R,ugm-3,214,R,ugm-3
04-01-1990,19:00,96,R,ugm-3,61,R,ugm-3,208,R,ugm-3
04-01-1990,20:00,64,R,ugm-3,61,R,ugm-3,159,R,ugm-3
04-01-1990,21:00,54,R,ugm-3,59,R,ugm-3,141,R,ugm-3
04-01-1990,22:00,59,R,ugm-3,59,R,ugm-3,149,R,ugm-3
04-01-1990,23:00,49,R,ugm-3,59,R,ugm-3,134,R,ugm-3
04-01-1990,24:00,39,R,ugm-3,57,R,ugm-3,117,R,ugm-3
05-01-1990,01:00,26,R,ugm-3,57,R,ugm-3,97,R,ugm-3
05-01-1990,02:00,10,R,ugm-3,55,R,ugm-3,71,R,ugm-3
05-01-1990,03:00,3,R,ugm-3,52,R,ugm-3,55,R,ugm-3
05-01-1990,04:00,0,R,ugm-3,40,R,ugm-3,40,R,ugm-3
05-01-1990,05:00,0,R,ugm-3,36,R,ugm-3,36,R,ugm-3
05-01-1990,06:00,1,R,ugm-3,42,R,ugm-3,44,R,ugm-3
05-01-1990,07:00,11,R,ugm-3,53,R,ugm-3,71,R,ugm-3
05-01-1990,08:00,28,R,ugm-3,57,R,ugm-3,99,R,ugm-3
05-01-1990,09:00,30,R,ugm-3,50,R,ugm-3,96,R,ugm-3
05-01-1990,10:00,31,R,ugm-3,50,R,ugm-3,97,R,ugm-3
05-01-1990,11:00,30,R,ugm-3,44,R,ugm-3,90,R,ugm-3
05-01-1990,12:00,44,R,ugm-3,61,R,ugm-3,128,R,ugm-3
05-01-1990,13:00,50,R,ugm-3,57,R,ugm-3,134,R,ugm-3
05-01-1990,14:00,56,R,ugm-3,55,R,ugm-3,141,R,ugm-3
05-01-1990,15:00,74,R,ugm-3,57,R,ugm-3,170,R,ugm-3
05-01-1990,16:00,60,R,ugm-3,57,R,ugm-3,149,R,ugm-3
05-01-1990,17:00,131,R,ugm-3,86,R,ugm-3,287,R,ugm-3
05-01-1990,18:00,78,R,ugm-3,69,R,ugm-3,187,R,ugm-3
05-01-1990,19:00,89,R,ugm-3,80,R,ugm-3,216,R,ugm-3
05-01-1990,20:00,50,R,ugm-3,63,R,ugm-3,139,R,ugm-3
05-01-1990,21:00,75,R,ugm-3,73,R,ugm-3,187,R,ugm-3
05-01-1990,22:00,56,R,ugm-3,63,R,ugm-3,149,R,ugm-3
05-01-1990,23:00,81,R,ugm-3,73,R,ugm-3,197,R,ugm-3
05-01-1990,24:00,63,R,ugm-3,69,R,ugm-3,164,R,ugm-3
06-01-1990,01:00,60,R,ugm-3,74,R,ugm-3,166,R,ugm-3
06-01-1990,02:00,68,R,ugm-3,76,R,ugm-3,180,R,ugm-3
06-01-1990,03:00,65,R,ugm-3,73,R,ugm-3,172,R,ugm-3
06-01-1990,04:00,30,R,ugm-3,55,R,ugm-3,101,R,ugm-3
06-01-1990,05:00,4,R,ugm-3,34,R,ugm-3,40,R,ugm-3
06-01-1990,06:00,41,R,ugm-3,59,R,ugm-3,122,R,ugm-3
06-01-1990,07:00,34,R,ugm-3,53,R,ugm-3,105,R,ugm-3
06-01-1990,08:00,24,R,ugm-3,46,R,ugm-3,82,R,ugm-3
06-01-1990,09:00,18,R,ugm-3,42,R,ugm-3,69,R,ugm-3
06-01-1990,10:00,19,R,ugm-3,42,R,ugm-3,71,R,ugm-3
06-01-1990,11:00,13,R,ugm-3,42,R,ugm-3,61,R,ugm-3
06-01-1990,12:00,16,R,ugm-3,48,R,ugm-3,73,R,ugm-3
06-01-1990,13:00,29,R,ugm-3,50,R,ugm-3,94,R,ugm-3
06-01-1990,14:00,9,R,ugm-3,52,R,ugm-3,65,R,ugm-3
06-01-1990,15:00,28,R,ugm-3,67,R,ugm-3,109,R,ugm-3
06-01-1990,16:00,53,R,ugm-3,71,R,ugm-3,151,R,ugm-3
06-01-1990,17:00,66,R,ugm-3,74,R,ugm-3,176,R,ugm-3
06-01-1990,18:00,44,R,ugm-3,69,R,ugm-3,136,R,ugm-3
06-01-1990,19:00,60,R,ugm-3,71,R,ugm-3,162,R,ugm-3
06-01-1990,20:00,36,R,ugm-3,69,R,ugm-3,124,R,ugm-3
06-01-1990,21:00,16,R,ugm-3,52,R,ugm-3,76,R,ugm-3
06-01-1990,22:00,6,R,ugm-3,48,R,ugm-3,57,R,ugm-3
06-01-1990,23:00,21,R,ugm-3,69,R,ugm-3,101,R,ugm-3
06-01-1990,24:00,8,R,ugm-3,52,R,ugm-3,63,R,ugm-3
07-01-1990,01:00,10,R,ugm-3,53,R,ugm-3,69,R,ugm-3
07-01-1990,02:00,8,R,ugm-3,40,R,ugm-3,52,R,ugm-3
07-01-1990,03:00,1,R,ugm-3,32,R,ugm-3,34,R,ugm-3
07-01-1990,04:00,0,R,ugm-3,21,R,ugm-3,21,R,ugm-3
07-01-1990,05:00,8,R,ugm-3,32,R,ugm-3,44,R,ugm-3
07-01-1990,06:00,8,R,ugm-3,31,R,ugm-3,42,R,ugm-3
07-01-1990,07:00,0,R,ugm-3,19,R,ugm-3,19,R,ugm-3
07-01-1990,08:00,1,R,ugm-3,29,R,ugm-3,31,R,ugm-3
07-01-1990,09:00,1,R,ugm-3,34,R,ugm-3,36,R,ugm-3
07-01-1990,10:00,3,R,ugm-3,42,R,ugm-3,46,R,ugm-3
07-01-1990,11:00,3,R,ugm-3,40,R,ugm-3,44,R,ugm-3
07-01-1990,12:00,3,R,ugm-3,32,R,ugm-3,36,R,ugm-3
07-01-1990,13:00,4,R,ugm-3,36,R,ugm-3,42,R,ugm-3
07-01-1990,14:00,4,R,ugm-3,36,R,ugm-3,42,R,ugm-3
07-01-1990,15:00,4,R,ugm-3,36,R,ugm-3,42,R,ugm-3
07-01-1990,16:00,4,R,ugm-3,40,R,ugm-3,46,R,ugm-3
07-01-1990,17:00,1,R,ugm-3,38,R,ugm-3,40,R,ugm-3
07-01-1990,18:00,3,R,ugm-3,42,R,ugm-3,46,R,ugm-3
07-01-1990,19:00,3,R,ugm-3,44,R,ugm-3,48,R,ugm-3
07-01-1990,20:00,3,R,ugm-3,46,R,ugm-3,50,R,ugm-3
07-01-1990,21:00,3,R,ugm-3,48,R,ugm-3,52,R,ugm-3
07-01-1990,22:00,9,R,ugm-3,50,R,ugm-3,63,R,ugm-3
07-01-1990,23:00,15,R,ugm-3,52,R,ugm-3,74,R,ugm-3
07-01-1990,24:00,23,R,ugm-3,52,R,ugm-3,86,R,ugm-3
08-01-1990,01:00,8,R,ugm-3,48,R,ugm-3,59,R,ugm-3
08-01-1990,02:00,10,R,ugm-3,50,R,ugm-3,65,R,ugm-3
08-01-1990,03:00,1,R,ugm-3,32,R,ugm-3,34,R,ugm-3
08-01-1990,04:00,0,R,ugm-3,23,R,ugm-3,23,R,ugm-3
08-01-1990,05:00,1,R,ugm-3,31,R,ugm-3,32,R,ugm-3
08-01-1990,06:00,5,R,ugm-3,42,R,ugm-3,50,R,ugm-3
08-01-1990,07:00,86,R,ugm-3,78,R,ugm-3,210,R,ugm-3
08-01-1990,08:00,120,R,ugm-3,94,R,ugm-3,277,R,ugm-3
08-01-1990,09:00,135,R,ugm-3,73,R,ugm-3,279,R,ugm-3
08-01-1990,10:00,211,R,ugm-3,80,R,ugm-3,403,R,ugm-3
08-01-1990,11:00,156,R,ugm-3,71,R,ugm-3,309,R,ugm-3
08-01-1990,12:00,173,R,ugm-3,71,R,ugm-3,334,R,ugm-3
08-01-1990,13:00,90,R,ugm-3,69,R,ugm-3,206,R,ugm-3
08-01-1990,14:00,23,R,ugm-3,44,R,ugm-3,78,R,ugm-3
08-01-1990,15:00,44,R,ugm-3,55,R,ugm-3,122,R,ugm-3
08-01-1990,16:00,30,R,ugm-3,55,R,ugm-3,101,R,ugm-3
08-01-1990,17:00,39,R,ugm-3,63,R,ugm-3,122,R,ugm-3
08-01-1990,18:00,38,R,ugm-3,65,R,ugm-3,122,R,ugm-3
08-01-1990,19:00,35,R,ugm-3,67,R,ugm-3,120,R,ugm-3
08-01-1990,20:00,38,R,ugm-3,67,R,ugm-3,124,R,ugm-3
08-01-1990,21:00,40,R,ugm-3,65,R,ugm-3,126,R,ugm-3
08-01-1990,22:00,30,R,ugm-3,65,R,ugm-3,111,R,ugm-3
08-01-1990,23:00,24,R,ugm-3,65,R,ugm-3,101,R,ugm-3
08-01-1990,24:00,8,R,ugm-3,57,R,ugm-3,69,R,ugm-3
09-01-1990,01:00,0,R,ugm-3,46,R,ugm-3,46,R,ugm-3
09-01-1990,02:00,0,R,ugm-3,29,R,ugm-3,29,R,ugm-3
09-01-1990,03:00,5,R,ugm-3,31,R,ugm-3,38,R,ugm-3
09-01-1990,04:00,0,R,ugm-3,11,R,ugm-3,11,R,ugm-3
09-01-1990,05:00,0,R,ugm-3,8,R,ugm-3,8,R,ugm-3
09-01-1990,06:00,0,R,ugm-3,13,R,ugm-3,13,R,ugm-3
09-01-1990,07:00,3,R,ugm-3,29,R,ugm-3,32,R,ugm-3
09-01-1990,08:00,43,R,ugm-3,76,R,ugm-3,141,R,ugm-3
09-01-1990,09:00,130,R,ugm-3,96,R,ugm-3,294,R,ugm-3
09-01-1990,10:00,108,R,ugm-3,80,R,ugm-3,244,R,ugm-3
09-01-1990,11:00,88,R,ugm-3,69,R,ugm-3,202,R,ugm-3
09-01-1990,12:00,36,R,ugm-3,61,R,ugm-3,117,R,ugm-3
09-01-1990,13:00,18,R,ugm-3,44,R,ugm-3,71,R,ugm-3
09-01-1990,14:00,28,R,ugm-3,48,R,ugm-3,90,R,ugm-3
09-01-1990,15:00,55,R,ugm-3,65,R,ugm-3,149,R,ugm-3
09-01-1990,16:00,88,R,ugm-3,80,R,ugm-3,214,R,ugm-3
09-01-1990,17:00,65,R,ugm-3,74,R,ugm-3,174,R,ugm-3
09-01-1990,18:00,49,R,ugm-3,73,R,ugm-3,147,R,ugm-3
09-01-1990,19:00,26,R,ugm-3,69,R,ugm-3,109,R,ugm-3
09-01-1990,20:00,9,R,ugm-3,57,R,ugm-3,71,R,ugm-3
09-01-1990,21:00,10,R,ugm-3,59,R,ugm-3,74,R,ugm-3
09-01-1990,22:00,10,R,ugm-3,61,R,ugm-3,76,R,ugm-3
09-01-1990,23:00,14,R,ugm-3,63,R,ugm-3,84,R,ugm-3
09-01-1990,24:00,19,R,ugm-3,69,R,ugm-3,97,R,ugm-3
10-01-1990,01:00,26,R,ugm-3,73,R,ugm-3,113,R,ugm-3
10-01-1990,02:00,6,R,ugm-3,61,R,ugm-3,71,R,ugm-3
10-01-1990,03:00,1,R,ugm-3,57,R,ugm-3,59,R,ugm-3
10-01-1990,04:00,0,R,ugm-3,50,R,ugm-3,50,R,ugm-3
10-01-1990,05:00,0,R,ugm-3,36,R,ugm-3,36,R,ugm-3
10-01-1990,06:00,0,R,ugm-3,27,R,ugm-3,27,R,ugm-3
10-01-1990,07:00,3,R,ugm-3,21,R,ugm-3,25,R,ugm-3
10-01-1990,08:00,11,R,ugm-3,29,R,ugm-3,46,R,ugm-3
10-01-1990,09:00,4,R,ugm-3,29,R,ugm-3,34,R,ugm-3
10-01-1990,10:00,6,R,ugm-3,29,R,ugm-3,38,R,ugm-3
10-01-1990,11:00,8,R,ugm-3,29,R,ugm-3,40,R,ugm-3
10-01-1990,12:00,18,R,ugm-3,31,R,ugm-3,57,R,ugm-3
10-01-1990,13:00,14,R,ugm-3,32,R,ugm-3,53,R,ugm-3
10-01-1990,14:00,14,R,ugm-3,34,R,ugm-3,55,R,ugm-3
10-01-1990,15:00,13,R,ugm-3,42,R,ugm-3,61,R,ugm-3
10-01-1990,16:00,24,R,ugm-3,52,R,ugm-3,88,R,ugm-3
10-01-1990,17:00,8,R,ugm-3,53,R,ugm-3,65,R,ugm-3
10-01-1990,18:00,3,R,ugm-3,50,R,ugm-3,53,R,ugm-3
10-01-1990,19:00,25,R,ugm-3,71,R,ugm-3,109,R,ugm-3
10-01-1990,20:00,3,R,ugm-3,34,R,ugm-3,38,R,ugm-3
10-01-1990,21:00,1,R,ugm-3,32,R,ugm-3,34,R,ugm-3
10-01-1990,22:00,31,R,ugm-3,59,R,ugm-3,107,R,ugm-3
10-01-1990,23:00,0,R,ugm-3,19,R,ugm-3,19,R,ugm-3
10-01-1990,24:00,24,R,ugm-3,50,R,ugm-3,86,R,ugm-3
11-01-1990,01:00,0,R,ugm-3,21,R,ugm-3,21,R,ugm-3
11-01-1990,02:00,0,R,ugm-3,13,R,ugm-3,13,R,ugm-3
11-01-1990,03:00,0,R,ugm-3,10,R,ugm-3,10,R,ugm-3
11-01-1990,04:00,0,R,ugm-3,13,R,ugm-3,13,R,ugm-3
11-01-1990,05:00,0,R,ugm-3,10,R,ugm-3,10,R,ugm-3
11-01-1990,06:00,0,R,ugm-3,10,R,ugm-3,10,R,ugm-3
11-01-1990,07:00,1,R,ugm-3,21,R,ugm-3,23,R,ugm-3
11-01-1990,08:00,18,R,ugm-3,46,R,ugm-3,73,R,ugm-3
11-01-1990,09:00,9,R,ugm-3,50,R,ugm-3,63,R,ugm-3
11-01-1990,10:00,5,R,ugm-3,34,R,ugm-3,42,R,ugm-3
11-01-1990,11:00,16,R,ugm-3,34,R,ugm-3,59,R,ugm-3
11-01-1990,12:00,6,R,ugm-3,31,R,ugm-3,40,R,ugm-3
11-01-1990,13:00,8,R,ugm-3,29,R,ugm-3,40,R,ugm-3
11-01-1990,14:00,8,R,ugm-3,29,R,ugm-3,40,R,ugm-3
11-01-1990,15:00,9,R,ugm-3,31,R,ugm-3,44,R,ugm-3
11-01-1990,16:00,6,R,ugm-3,38,R,ugm-3,48,R,ugm-3
11-01-1990,17:00,4,R,ugm-3,48,R,ugm-3,53,R,ugm-3
11-01-1990,18:00,8,R,ugm-3,59,R,ugm-3,71,R,ugm-3
11-01-1990,19:00,4,R,ugm-3,52,R,ugm-3,57,R,ugm-3
11-01-1990,20:00,1,R,ugm-3,46,R,ugm-3,48,R,ugm-3
11-01-1990,21:00,0,R,ugm-3,38,R,ugm-3,38,R,ugm-3
11-01-1990,22:00,0,R,ugm-3,31,R,ugm-3,31,R,ugm-3
11-01-1990,23:00,0,R,ugm-3,23,R,ugm-3,23,R,ugm-3
11-01-1990,24:00,0,R,ugm-3,19,R,ugm-3,19,R,ugm-3
12-01-1990,01:00,3,R,ugm-3,19,R,ugm-3,23,R,ugm-3
12-01-1990,02:00,3,R,ugm-3,17,R,ugm-3,21,R,ugm-3
12-01-1990,03:00,1,R,ugm-3,11,R,ugm-3,13,R,ugm-3
12-01-1990,04:00,1,R,ugm-3,11,R,ugm-3,13,R,ugm-3
12-01-1990,05:00,1,R,ugm-3,11,R,ugm-3,13,R,ugm-3
12-01-1990,06:00,1,R,ugm-3,13,R,ugm-3,15,R,ugm-3
12-01-1990,07:00,1,R,ugm-3,17,R,ugm-3,19,R,ugm-3
12-01-1990,08:00,14,R,ugm-3,40,R,ugm-3,61,R,ugm-3
12-01-1990,09:00,11,R,ugm-3,48,R,ugm-3,65,R,ugm-3
12-01-1990,10:00,13,R,ugm-3,40,R,ugm-3,59,R,ugm-3
12-01-1990,11:00,15,R,ugm-3,48,R,ugm-3,71,R,ugm-3
12-01-1990,12:00,29,R,ugm-3,53,R,ugm-3,97,R,ugm-3
12-01-1990,13:00,55,R,ugm-3,65,R,ugm-3,149,R,ugm-3
12-01-1990,14:00,31,R,ugm-3,63,R,ugm-3,111,R,ugm-3
12-01-1990,15:00,18,R,ugm-3,40,R,ugm-3,67,R,ugm-3
12-01-1990,16:00,16,R,ugm-3,50,R,ugm-3,74,R,ugm-3
12-01-1990,17:00,23,R,ugm-3,59,R,ugm-3,94,R,ugm-3
12-01-1990,18:00,25,R,ugm-3,55,R,ugm-3,94,R,ugm-3
12-01-1990,19:00,44,R,ugm-3,63,R,ugm-3,130,R,ugm-3
12-01-1990,20:00,44,R,ugm-3,65,R,ugm-3,132,R,ugm-3
12-01-1990,21:00,35,R,ugm-3,63,R,ugm-3,117,R,ugm-3
12-01-1990,22:00,25,R,ugm-3,59,R,ugm-3,97,R,ugm-3
12-01-1990,23:00,11,R,ugm-3,50,R,ugm-3,67,R,ugm-3
12-01-1990,24:00,10,R,ugm-3,48,R,ugm-3,63,R,ugm-3
13-01-1990,01:00,18,R,ugm-3,48,R,ugm-3,74,R,ugm-3
13-01-1990,02:00,1,R,ugm-3,27,R,ugm-3,29,R,ugm-3
13-01-1990,03:00,1,R,ugm-3,23,R,ugm-3,25,R,ugm-3
13-01-1990,04:00,1,R,ugm-3,15,R,ugm-3,17,R,ugm-3
13-01-1990,05:00,1,R,ugm-3,17,R,ugm-3,19,R,ugm-3
13-01-1990,06:00,3,R,ugm-3,29,R,ugm-3,32,R,ugm-3
13-01-1990,07:00,8,R,ugm-3,42,R,ugm-3,53,R,ugm-3
13-01-1990,08:00,40,R,ugm-3,57,R,ugm-3,118,R,ugm-3
13-01-1990,09:00,103,R,ugm-3,59,R,ugm-3,216,R,ugm-3
13-01-1990,10:00,60,R,ugm-3,55,R,ugm-3,147,R,ugm-3
13-01-1990,11:00,25,R,ugm-3,44,R,ugm-3,82,R,ugm-3
13-01-1990,12:00,19,R,ugm-3,40,R,ugm-3,69,R,ugm-3
13-01-1990,13:00,18,R,ugm-3,38,R,ugm-3,65,R,ugm-3
13-01-1990,14:00,15,R,ugm-3,40,R,ugm-3,63,R,ugm-3
13-01-1990,15:00,8,R,ugm-3,29,R,ugm-3,40,R,ugm-3
13-01-1990,16:00,6,R,ugm-3,34,R,ugm-3,44,R,ugm-3
13-01-1990,17:00,5,R,ugm-3,42,R,ugm-3,50,R,ugm-3
13-01-1990,18:00,6,R,ugm-3,52,R,ugm-3,61,R,ugm-3
13-01-1990,19:00,10,R,ugm-3,67,R,ugm-3,82,R,ugm-3
13-01-1990,20:00,14,R,ugm-3,67,R,ugm-3,88,R,ugm-3
13-01-1990,21:00,9,R,ugm-3,61,R,ugm-3,74,R,ugm-3
13-01-1990,22:00,21,R,ugm-3,63,R,ugm-3,96,R,ugm-3
13-01-1990,23:00,39,R,ugm-3,69,R,ugm-3,128,R,ugm-3
13-01-1990,24:00,3,R,ugm-3,44,R,ugm-3,48,R,ugm-3
14-01-1990,01:00,1,R,ugm-3,38,R,ugm-3,40,R,ugm-3
14-01-1990,02:00,1,R,ugm-3,36,R,ugm-3,38,R,ugm-3
14-01-1990,03:00,1,R,ugm-3,31,R,ugm-3,32,R,ugm-3
14-01-1990,04:00,1,R,ugm-3,29,R,ugm-3,31,R,ugm-3
14-01-1990,05:00,1,R,ugm-3,21,R,ugm-3,23,R,ugm-3
14-01-1990,06:00,1,R,ugm-3,17,R,ugm-3,19,R,ugm-3
14-01-1990,07:00,1,R,ugm-3,19,R,ugm-3,21,R,ugm-3
14-01-1990,08:00,4,R,ugm-3,25,R,ugm-3,31,R,ugm-3
14-01-1990,09:00,5,R,ugm-3,31,R,ugm-3,38,R,ugm-3
14-01-1990,10:00,5,R,ugm-3,29,R,ugm-3,36,R,ugm-3
14-01-1990,11:00,6,R,ugm-3,25,R,ugm-3,34,R,ugm-3
14-01-1990,12:00,8,R,ugm-3,25,R,ugm-3,36,R,ugm-3
14-01-1990,13:00,8,R,ugm-3,25,R,ugm-3,36,R,ugm-3
14-01-1990,14:00,5,R,ugm-3,25,R,ugm-3,32,R,ugm-3
14-01-1990,15:00,5,R,ugm-3,25,R,ugm-3,32,R,ugm-3
14-01-1990,16:00,4,R,ugm-3,31,R,ugm-3,36,R,ugm-3
14-01-1990,17:00,4,R,ugm-3,32,R,ugm-3,38,R,ugm-3
14-01-1990,18:00,3,R,ugm-3,29,R,ugm-3,32,R,ugm-3
14-01-1990,19:00,3,R,ugm-3,23,R,ugm-3,27,R,ugm-3
14-01-1990,20:00,3,R,ugm-3,21,R,ugm-3,25,R,ugm-3
14-01-1990,21:00,1,R,ugm-3,11,R,ugm-3,13,R,ugm-3
14-01-1990,22:00,1,R,ugm-3,13,R,ugm-3,15,R,ugm-3
14-01-1990,23:00,1,R,ugm-3,15,R,ugm-3,17,R,ugm-3
14-01-1990,24:00,1,R,ugm-3,13,R,ugm-3,15,R,ugm-3
15-01-1990,01:00,1,R,ugm-3,10,R,ugm-3,11,R,ugm-3
15-01-1990,02:00,1,R,ugm-3,8,R,ugm-3,10,R,ugm-3
15-01-1990,03:00,0,R,ugm-3,4,R,ugm-3,4,R,ugm-3
15-01-1990,04:00,0,R,ugm-3,2,R,ugm-3,2,R,ugm-3
15-01-1990,05:00,1,R,ugm-3,4,R,ugm-3,6,R,ugm-3
15-01-1990,06:00,1,R,ugm-3,6,R,ugm-3,8,R,ugm-3
15-01-1990,07:00,3,R,ugm-3,11,R,ugm-3,15,R,ugm-3
15-01-1990,08:00,14,R,ugm-3,34,R,ugm-3,55,R,ugm-3
15-01-1990,09:00,10,R,ugm-3,40,R,ugm-3,55,R,ugm-3
15-01-1990,10:00,11,R,ugm-3,36,R,ugm-3,53,R,ugm-3
15-01-1990,11:00,13,R,ugm-3,32,R,ugm-3,52,R,ugm-3
15-01-1990,12:00,10,R,ugm-3,27,R,ugm-3,42,R,ugm-3
15-01-1990,13:00,11,R,ugm-3,23,R,ugm-3,40,R,ugm-3
15-01-1990,14:00,13,R,ugm-3,23,R,ugm-3,42,R,ugm-3
15-01-1990,15:00,26,R,ugm-3,29,R,ugm-3,69,R,ugm-3
15-01-1990,16:00,8,R,ugm-3,23,R,ugm-3,34,R,ugm-3
15-01-1990,17:00,11,R,ugm-3,31,R,ugm-3,48,R,ugm-3
15-01-1990,18:00,,,,,,,,,
15-01-1990,19:00,,,,,,,,,
15-01-1990,20:00,4,R,ugm-3,11,R,ugm-3,17,R,ugm-3
15-01-1990,21:00,1,R,ugm-3,11,R,ugm-3,13,R,ugm-3
15-01-1990,22:00,3,R,ugm-3,10,R,ugm-3,13,R,ugm-3
15-01-1990,23:00,3,R,ugm-3,6,R,ugm-3,10,R,ugm-3
15-01-1990,24:00,3,R,ugm-3,6,R,ugm-3,10,R,ugm-3
16-01-1990,01:00,3,R,ugm-3,6,R,ugm-3,10,R,ugm-3
16-01-1990,02:00,1,R,ugm-3,4,R,ugm-3,6,R,ugm-3
16-01-1990,03:00,1,R,ugm-3,4,R,ugm-3,6,R,ugm-3
16-01-1990,04:00,1,R,ugm-3,6,R,ugm-3,8,R,ugm-3
16-01-1990,05:00,3,R,ugm-3,15,R,ugm-3,19,R,ugm-3
16-01-1990,06:00,6,R,ugm-3,29,R,ugm-3,38,R,ugm-3
16-01-1990,07:00,3,R,ugm-3,25,R,ugm-3,29,R,ugm-3
16-01-1990,08:00,16,R,ugm-3,44,R,ugm-3,69,R,ugm-3
16-01-1990,09:00,13,R,ugm-3,48,R,ugm-3,67,R,ugm-3
16-01-1990,10:00,13,R,ugm-3,46,R,ugm-3,65,R,ugm-3
16-01-1990,11:00,29,R,ugm-3,50,R,ugm-3,94,R,ugm-3
16-01-1990,12:00,11,R,ugm-3,34,R,ugm-3,52,R,ugm-3
16-01-1990,13:00,11,R,ugm-3,27,R,ugm-3,44,R,ugm-3
16-01-1990,14:00,6,R,ugm-3,19,R,ugm-3,29,R,ugm-3
16-01-1990,15:00,15,R,ugm-3,23,R,ugm-3,46,R,ugm-3
16-01-1990,16:00,9,R,ugm-3,27,R,ugm-3,40,R,ugm-3
16-01-1990,17:00,3,R,ugm-3,25,R,ugm-3,29,R,ugm-3
16-01-1990,18:00,11,R,ugm-3,25,R,ugm-3,42,R,ugm-3
16-01-1990,19:00,4,R,ugm-3,23,R,ugm-3,29,R,ugm-3
16-01-1990,20:00,1,R,ugm-3,19,R,ugm-3,21,R,ugm-3
16-01-1990,21:00,3,R,ugm-3,13,R,ugm-3,17,R,ugm-3
16-01-1990,22:00,1,R,ugm-3,15,R,ugm-3,17,R,ugm-3
16-01-1990,23:00,1,R,ugm-3,13,R,ugm-3,15,R,ugm-3
16-01-1990,24:00,1,R,ugm-3,10,R,ugm-3,11,R,ugm-3
17-01-1990,01:00,1,R,ugm-3,6,R,ugm-3,8,R,ugm-3
17-01-1990,02:00,0,R,ugm-3,6,R,ugm-3,6,R,ugm-3
17-01-1990,03:00,0,R,ugm-3,4,R,ugm-3,4,R,ugm-3
17-01-1990,04:00,1,R,ugm-3,4,R,ugm-3,6,R,ugm-3
17-01-1990,05:00,1,R,ugm-3,4,R,ugm-3,6,R,ugm-3
17-01-1990,06:00,1,R,ugm-3,10,R,ugm-3,11,R,ugm-3
17-01-1990,07:00,6,R,ugm-3,17,R,ugm-3,27,R,ugm-3
17-01-1990,08:00,29,R,ugm-3,46,R,ugm-3,90,R,ugm-3
17-01-1990,09:00,16,R,ugm-3,36,R,ugm-3,61,R,ugm-3
17-01-1990,10:00,11,R,ugm-3,27,R,ugm-3,44,R,ugm-3
17-01-1990,11:00,10,R,ugm-3,19,R,ugm-3,34,R,ugm-3
17-01-1990,12:00,13,R,ugm-3,19,R,ugm-3,38,R,ugm-3
17-01-1990,13:00,16,R,ugm-3,23,R,ugm-3,48,R,ugm-3
17-01-1990,14:00,15,R,ugm-3,25,R,ugm-3,48,R,ugm-3
17-01-1990,15:00,20,R,ugm-3,27,R,ugm-3,57,R,ugm-3
17-01-1990,16:00,,,,,,,,,
17-01-1990,17:00,,,,,,,,,
17-01-1990,18:00,,,,,,,,,
17-01-1990,19:00,,,,,,,,,
17-01-1990,20:00,,,,,,,,,
17-01-1990,21:00,,,,,,,,,
17-01-1990,22:00,,,,,,,,,
17-01-1990,23:00,,,,,,,,,
17-01-1990,24:00,,,,,,,,,
18-01-1990,01:00,,,,,,,,,
18-01-1990,02:00,,,,,,,,,
18-01-1990,03:00,,,,,,,,,
18-01-1990,04:00,,,,,,,,,
18-01-1990,05:00,,,,,,,,,
18-01-1990,06:00,,,,,,,,,
18-01-1990,07:00,,,,,,,,,
18-01-1990,08:00,,,,,,,,,
18-01-1990,09:00,88,R,ugm-3,105,R,ugm-3,239,R,ugm-3
18-01-1990,10:00,143,R,ugm-3,115,R,ugm-3,332,R,ugm-3
18-01-1990,11:00,58,R,ugm-3,84,R,ugm-3,172,R,ugm-3
18-01-1990,12:00,50,R,ugm-3,63,R,ugm-3,139,R,ugm-3
18-01-1990,13:00,60,R,ugm-3,63,R,ugm-3,155,R,ugm-3
18-01-1990,14:00,48,R,ugm-3,59,R,ugm-3,132,R,ugm-3
18-01-1990,15:00,35,R,ugm-3,69,R,ugm-3,122,R,ugm-3
18-01-1990,16:00,35,R,ugm-3,73,R,ugm-3,126,R,ugm-3
18-01-1990,17:00,45,R,ugm-3,90,R,ugm-3,159,R,ugm-3
18-01-1990,18:00,23,R,ugm-3,90,R,ugm-3,124,R,ugm-3
18-01-1990,19:00,10,R,ugm-3,67,R,ugm-3,82,R,ugm-3
18-01-1990,20:00,5,R,ugm-3,46,R,ugm-3,53,R,ugm-3
18-01-1990,21:00,4,R,ugm-3,55,R,ugm-3,61,R,ugm-3
18-01-1990,22:00,4,R,ugm-3,74,R,ugm-3,80,R,ugm-3
18-01-1990,23:00,3,R,ugm-3,73,R,ugm-3,76,R,ugm-3
18-01-1990,24:00,0,R,ugm-3,40,R,ugm-3,40,R,ugm-3
19-01-1990,01:00,3,R,ugm-3,25,R,ugm-3,29,R,ugm-3
19-01-1990,02:00,1,R,ugm-3,21,R,ugm-3,23,R,ugm-3
19-01-1990,03:00,3,R,ugm-3,19,R,ugm-3,23,R,ugm-3
19-01-1990,04:00,3,R,ugm-3,15,R,ugm-3,19,R,ugm-3
19-01-1990,05:00,1,R,ugm-3,13,R,ugm-3,15,R,ugm-3
19-01-1990,06:00,3,R,ugm-3,13,R,ugm-3,17,R,ugm-3
19-01-1990,07:00,4,R,ugm-3,19,R,ugm-3,25,R,ugm-3
19-01-1990,08:00,13,R,ugm-3,36,R,ugm-3,55,R,ugm-3
19-01-1990,09:00,10,R,ugm-3,34,R,ugm-3,50,R,ugm-3
19-01-1990,10:00,6,R,ugm-3,31,R,ugm-3,40,R,ugm-3
19-01-1990,11:00,21,R,ugm-3,32,R,ugm-3,65,R,ugm-3
19-01-1990,12:00,31,R,ugm-3,36,R,ugm-3,84,R,ugm-3
19-01-1990,13:00,20,R,ugm-3,29,R,ugm-3,59,R,ugm-3
19-01-1990,14:00,29,R,ugm-3,32,R,ugm-3,76,R,ugm-3
19-01-1990,15:00,35,R,ugm-3,34,R,ugm-3,88,R,ugm-3
19-01-1990,16:00,20,R,ugm-3,44,R,ugm-3,74,R,ugm-3
19-01-1990,17:00,18,R,ugm-3,52,R,ugm-3,78,R,ugm-3
19-01-1990,18:00,18,R,ugm-3,48,R,ugm-3,74,R,ugm-3
19-01-1990,19:00,10,R,ugm-3,36,R,ugm-3,52,R,ugm-3
19-01-1990,20:00,9,R,ugm-3,25,R,ugm-3,38,R,ugm-3
19-01-1990,21:00,6,R,ugm-3,31,R,ugm-3,40,R,ugm-3
19-01-1990,22:00,6,R,ugm-3,31,R,ugm-3,40,R,ugm-3
19-01-1990,23:00,4,R,ugm-3,17,R,ugm-3,23,R,ugm-3
19-01-1990,24:00,4,R,ugm-3,17,R,ugm-3,23,R,ugm-3
20-01-1990,01:00,3,R,ugm-3,10,R,ugm-3,13,R,ugm-3
20-01-1990,02:00,1,R,ugm-3,6,R,ugm-3,8,R,ugm-3
20-01-1990,03:00,3,R,ugm-3,4,R,ugm-3,8,R,ugm-3
20-01-1990,04:00,3,R,ugm-3,4,R,ugm-3,8,R,ugm-3
20-01-1990,05:00,3,R,ugm-3,4,R,ugm-3,8,R,ugm-3
20-01-1990,06:00,3,R,ugm-3,6,R,ugm-3,10,R,ugm-3
20-01-1990,07:00,3,R,ugm-3,13,R,ugm-3,17,R,ugm-3
20-01-1990,08:00,4,R,ugm-3,23,R,ugm-3,29,R,ugm-3
20-01-1990,09:00,4,R,ugm-3,21,R,ugm-3,27,R,ugm-3
20-01-1990,10:00,5,R,ugm-3,23,R,ugm-3,31,R,ugm-3
20-01-1990,11:00,6,R,ugm-3,21,R,ugm-3,31,R,ugm-3
20-01-1990,12:00,8,R,ugm-3,23,R,ugm-3,34,R,ugm-3
20-01-1990,13:00,8,R,ugm-3,23,R,ugm-3,34,R,ugm-3
20-01-1990,14:00,9,R,ugm-3,27,R,ugm-3,40,R,ugm-3
20-01-1990,15:00,6,R,ugm-3,19,R,ugm-3,29,R,ugm-3
20-01-1990,16:00,6,R,ugm-3,27,R,ugm-3,36,R,ugm-3
20-01-1990,17:00,8,R,ugm-3,32,R,ugm-3,44,R,ugm-3
20-01-1990,18:00,8,R,ugm-3,36,R,ugm-3,48,R,ugm-3
20-01-1990,19:00,6,R,ugm-3,34,R,ugm-3,44,R,ugm-3
20-01-1990,20:00,5,R,ugm-3,31,R,ugm-3,38,R,ugm-3
20-01-1990,21:00,5,R,ugm-3,25,R,ugm-3,32,R,ugm-3
20-01-1990,22:00,4,R,ugm-3,19,R,ugm-3,25,R,ugm-3
20-01-1990,23:00,3,R,ugm-3,13,R,ugm-3,17,R,ugm-3
20-01-1990,24:00,4,R,ugm-3,8,R,ugm-3,13,R,ugm-3
21-01-1990,01:00,3,R,ugm-3,8,R,ugm-3,11,R,ugm-3
21-01-1990,02:00,3,R,ugm-3,8,R,ugm-3,11,R,ugm-3
21-01-1990,03:00,3,R,ugm-3,4,R,ugm-3,8,R,ugm-3
21-01-1990,04:00,3,R,ugm-3,6,R,ugm-3,10,R,ugm-3
21-01-1990,05:00,5,R,ugm-3,19,R,ugm-3,27,R,ugm-3